Location: Newark
(48.1500°N, 13.1167°E)
Time: 19:53:04
(UTC+00:00)

N. Korean satellite - Pass Details

Date: 04 October 2021
Orbit: 450 x 495 km, 97.3° (Epoch: 15 October)

Event Time Altitude Azimuth Distance (km) Brightness Sun altitude
Rises 03:58:58 0° 20° (NNE) 2,557 10.6 -12.8°
Reaches altitude 10° 04:01:09 10° 29° (NNE) 1,679 9.8 -12.5°
Maximum altitude 04:04:30 35° 97° (E) 805 8.4 -11.9°
Drops below altitude 10° 04:07:52 10° 165° (SSE) 1,683 9.4 -11.4°
Sets 04:10:03 0° 174° (S) 2,564 10.2 -11.0°
